K7JKM Weather Reports


time (UTC)temp
C
wind
direction
speed
KPH
gust
KPH
rain 1hr
cm
rain 24hr
cm
rain mn
cm
humidity
%
barometer
mb
20260509111540 8 269 0.0 0.0 0.00 0.00 0.00 75 1021.6
20260509110025 8 269 0.0 0.0 0.00 0.00 0.00 74 1021.7
20260509104527 8 269 0.0 0.0 0.00 0.00 0.00 74 1022.0
20260509103018 8 269 0.0 0.0 0.00 0.00 0.00 72 1022.1
20260509101527 8 269 0.0 0.0 0.00 0.00 0.00 71 1022.0
20260509100032 8 269 0.0 0.0 0.00 0.00 0.00 70 1022.0
20260509094511 8 269 0.0 0.0 0.00 0.00 0.00 70 1022.2
20260509093006 8 269 0.0 0.0 0.00 0.00 0.00 70 1022.1
20260509091506 9 269 0.0 0.0 0.00 0.00 0.00 69 1022.2
20260509090004 9 269 0.0 0.0 0.00 0.00 0.00 68 1022.3
20260509084512 10 269 0.0 0.0 0.00 0.00 0.00 68 1022.4
20260509083015 10 269 0.0 0.0 0.00 0.00 0.00 68 1022.5
20260509081516 10 269 0.0 0.0 0.00 0.00 0.00 67 1022.6
20260509080016 10 269 0.0 0.0 0.00 0.00 0.00 67 1022.6
20260509074512 11 269 0.0 0.0 0.00 0.00 0.00 68 1022.7
20260509073009 11 269 0.0 0.0 0.00 0.00 0.00 67 1022.7
20260509071507 11 269 0.0 0.0 0.00 0.00 0.00 66 1022.7
20260509070020 11 269 0.0 0.0 0.00 0.00 0.00 66 1022.6
20260509064528 11 265 0.0 0.0 0.00 0.00 0.00 66 1022.6
20260509063018 12 265 0.0 0.0 0.00 0.00 0.00 65 1022.6
20260509061535 12 265 0.0 0.0 0.00 0.00 0.00 64 1022.5
20260509060016 12 265 0.0 0.0 0.00 0.00 0.00 63 1022.5
20260509054511 13 313 0.0 0.0 0.00 0.00 0.00 63 1022.5
20260509053023 13 302 0.0 1.6 0.00 0.00 0.00 62 1022.5
20260509051524 13 302 0.0 1.6 0.00 0.00 0.00 61 1022.4
20260509050022 14 294 0.0 1.6 0.00 0.00 0.00 60 1022.1
20260509044522 14 297 0.0 3.2 0.00 0.00 0.00 59 1022.1
20260509043022 15 309 0.0 1.6 0.00 0.00 0.00 58 1022.0
20260509041523 15 310 0.0 3.2 0.00 0.00 0.00 57 1021.9
20260509040017 15 40 0.0 1.6 0.00 0.00 0.00 56 1021.8
20260509034534 16 217 0.0 0.0 0.00 0.00 0.00 55 1021.7
20260509033028 16 174 0.0 0.0 0.00 0.00 0.00 54 1021.6
20260509031528 17 224 0.0 4.8 0.00 0.00 0.00 53 1021.6
20260509030028 17 206 0.0 4.8 0.00 0.00 0.00 51 1021.4
20260509024526 18 117 0.0 3.2 0.00 0.00 0.00 48 1021.3
20260509023024 19 187 0.0 1.6 0.00 0.00 0.00 45 1021.3
20260509021522 20 243 0.0 0.0 0.00 0.00 0.00 44 1021.2
20260509020002 20 198 0.0 1.6 0.00 0.00 0.00 44 1021.2
20260509014513 20 274 0.0 8.0 0.00 0.00 0.00 42 1021.2
20260509013010 20 219 0.0 1.6 0.00 0.00 0.00 41 1021.3
20260509011508 21 299 0.0 1.6 0.00 0.00 0.00 38 1021.4
20260509010003 21 300 0.0 6.4 0.00 0.00 0.00 39 1021.5
20260509004508 21 11 1.6 6.4 0.00 0.00 0.00 38 1021.5
20260509003006 22 307 0.0 3.2 0.00 0.00 0.00 38 1021.5
20260509001503 21 195 0.0 3.2 0.00 0.00 0.00 39 1021.6
20260509000018 21 305 0.0 4.8 0.00 0.00 0.00 39 1021.7
20260508234513 21 203 0.0 4.8 0.00 0.00 0.00 39 1021.8
20260508233011 20 316 0.0 8.0 0.00 0.00 0.00 39 1021.9
20260508231513 20 135 0.0 8.0 0.00 0.00 0.00 40 1021.9
20260508230005 21 7 0.0 3.2 0.00 0.00 0.00 38 1021.9
20260508224505 20 324 0.0 6.4 0.00 0.00 0.00 40 1021.9
20260508223010 20 129 0.0 3.2 0.00 0.00 0.00 39 1021.9
20260508221522 21 103 0.0 3.2 0.00 0.00 0.00 37 1022.0
20260508220022 20 142 0.0 4.8 0.00 0.00 0.00 40 1022.2
20260508214518 20 83 0.0 3.2 0.00 0.00 0.00 38 1022.2
20260508213015 21 285 0.0 4.8 0.00 0.00 0.00 36 1022.3
20260508211512 20 204 0.0 4.8 0.00 0.00 0.00 38 1022.3
20260508210009 20 236 0.0 3.2 0.00 0.00 0.00 37 1022.3
20260508204510 18 149 0.0 4.8 0.00 0.00 0.00 42 1022.3
20260508203028 18 295 0.0 6.4 0.00 0.00 0.00 43 1022.3
20260508201524 18 309 0.0 3.2 0.00 0.00 0.00 42 1022.5
20260508200021 17 20 0.0 1.6 0.00 0.00 0.00 42 1022.5
20260508194518 17 70 0.0 1.6 0.00 0.00 0.00 45 1022.7
20260508193016 16 299 0.0 3.2 0.00 0.00 0.00 48 1022.8
20260508191530 15 64 0.0 3.2 0.00 0.00 0.00 48 1022.9
20260508190008 15 120 0.0 1.6 0.00 0.00 0.00 49 1022.9
20260508184528 15 304 0.0 4.8 0.00 0.00 0.00 51 1023.1
20260508183032 15 311 0.0 3.2 0.00 0.00 0.00 48 1023.0
20260508181523 15 316 0.0 3.2 0.00 0.00 0.00 49 1022.9
20260508180024 16 314 0.0 1.6 0.00 0.00 0.00 48 1022.8
20260508174519 15 158 0.0 4.8 0.00 0.00 0.00 49 1022.7
20260508173018 13 174 0.0 1.6 0.00 0.00 0.00 53 1022.6
20260508171512 13 134 0.0 1.6 0.00 0.00 0.00 52 1022.6
20260508170024 13 204 0.0 4.8 0.00 0.00 0.00 53 1022.4
20260508164511 13 157 0.0 4.8 0.00 0.00 0.00 55 1022.3
20260508163004 12 225 0.0 1.6 0.00 0.00 0.00 57 1022.2
20260508161505 12 127 0.0 1.6 0.00 0.00 0.00 59 1022.0
20260508160011 11 157 0.0 4.8 0.00 0.00 0.00 59 1021.6
20260508154520 11 141 0.0 3.2 0.00 0.00 0.00 59 1021.9
20260508153020 11 133 0.0 4.8 0.00 0.00 0.00 60 1021.7
20260508151516 10 118 0.0 3.2 0.00 0.00 0.00 61 1021.8
20260508150020 10 154 0.0 1.6 0.00 0.00 0.00 61 1021.8
20260508144511 10 99 0.0 1.6 0.00 0.00 0.00 61 1021.8
20260508143013 10 104 0.0 1.6 0.00 0.00 0.00 62 1021.9
20260508141507 10 128 0.0 1.6 0.00 0.00 0.00 62 1021.9
20260508140024 10 148 0.0 1.6 0.00 0.00 0.00 63 1021.9
20260508134525 9 192 0.0 0.0 0.00 0.00 0.00 64 1021.5
20260508133024 8 122 0.0 1.6 0.00 0.00 0.00 64 1021.1
20260508131517 8 243 0.0 0.0 0.00 0.00 0.00 64 1021.0
20260508130020 8 127 0.0 1.6 0.00 0.00 0.00 64 1020.7
20260508124511 8 230 0.0 0.0 0.00 0.00 0.00 64 1020.4
20260508123029 9 223 0.0 3.2 0.00 0.00 0.00 64 1020.1
20260508121528 9 168 0.0 1.6 0.00 0.00 0.00 64 1019.8
20260508120035 9 308 0.0 4.8 0.00 0.00 0.00 65 1019.6
20260508114526 9 169 0.0 3.2 0.00 0.00 0.00 65 1019.6
20260508113024 9 210 0.0 0.0 0.00 0.00 0.00 65 1019.6